Regional Weather Roundup
Issued by NWS

Home | Current Version | Previous Version | Text Only | Print | Product List | Glossary On
Versions: 1 2 3 4 5 6 7 8 9 10 11 12 13 14 15 16 17 18 19 20 21 22 23 24 25 26 27 28 29 30 31 32 33 34 35 36 37 38 39 40 41 42 43 44 45 46 47 48 49 50
000
ASUS46 KPQR 070710
RWROR

OREGON REGIONAL WEATHER ROUNDUP
NATIONAL WEATHER SERVICE PORTLAND OR
1200 AM PDT THU MAY 07 2015

NOTE: "FAIR" INDICATES FEW OR NO CLOUDS BELOW 12,000 FEET WITH
NO SIGNIFICANT WEATHER AND/OR OBSTRUCTIONS TO VISIBILITY.

ORZ001>013-070800-
NORTHWEST OREGON


CITY           SKY/WX    TMP DP  RH WIND       PRES   REMARKS
ASTORIA        CLEAR     45  41  86 W5        30.16S
NEWPORT        CLEAR     48  45  87 N9        30.18S
PORTLAND       CLEAR     51  44  77 NW9       30.12S
VANCOUVER WA   CLEAR     52  42  69 VRB6      30.11S
SCAPPOOSE      CLEAR     50  42  74 N6        30.12R
HILLSBORO      CLEAR     48  42  80 NW12      30.12R
AURORA         CLEAR     49  42  77 N6        30.13R
MCMINNVILLE    CLEAR     47  41  80 W6        30.13S
SALEM          CLEAR     48  41  76 NW5       30.12S
CORVALLIS      CLEAR     46  41  81 NW6       30.13F
EUGENE         PTCLDY    45  41  86 N8        30.12S
$$

ORZ021-028-070800-
SOUTHWEST OREGON


CITY           SKY/WX    TMP DP  RH WIND       PRES   REMARKS
NORTH BEND     PTCLDY    50  46  87 N6        30.15S
BROOKINGS      CLEAR     53  38  56 NE7       30.04S
ROSEBURG       CLEAR     50  42  74 CALM      30.10F
SEXTON SUMMIT  CLOUDY    37  34  89 MISG      30.03S
MEDFORD        CLEAR     50  36  58 NW5       30.05S
$$

ORZ014>016-041-070800-
COLUMBIA GORGE


CITY           SKY/WX    TMP DP  RH WIND       PRES   REMARKS
TROUTDALE      CLEAR     51  44  77 CALM      30.10S
THE DALLES     CLEAR     43  38  82 SW8       30.08R
$$

ORZ029>031-041-044-049-050-061>064-502-503-505>511-070800-
EASTERN OREGON


CITY           SKY/WX    TMP DP  RH WIND       PRES   REMARKS
REDMOND        CLOUDY    38  32  79 NW7       30.06R WCI  33
BEND           CLOUDY    36  32  87 CALM      30.05S
PRINEVILLE     MOCLDY    32  30  93 CALM      30.04S
KLAMATH FALLS  PTCLDY    37  24  59 N8        30.00S WCI  31
LAKEVIEW       MOCLDY    34  25  69 N14       29.99S WCI  24
HERMISTON      CLOUDY    48  40  73 SW12      30.03S
PENDLETON      CLOUDY    45  39  79 SW10      30.01F
JOHN DAY       CLOUDY    40  32  73 W6        30.01S
MEACHAM        CLOUDY    37  34  89 CALM      30.01S
LA GRANDE      CLOUDY    43  30  61 NW10      29.99F
BAKER CITY     LGT RAIN  37  34  89 NW15      29.97F WCI  28
BURNS          CLEAR     35  26  69 W9        29.95S WCI  28
ROME             N/A     41  20  43 CALM      29.90R
ONTARIO        CLEAR     47  33  58 NW25G36   29.89S
$$


USA.gov is the U.S. government's official web portal to all federal, state and local government web resources and services.